X Fechar
foto

X Fechar
foto
Clique e saiba mais
Clique e saiba mais
Clique e saiba mais
Clique e saiba mais
Clique e saiba mais
Clique e saiba mais

Edgers Racing

KTM Sacramento

Toro Sports

SP Race Park

JPS Racing

MotoX Pneus

Arenafama

Clique e saiba mais

> Notícias > Últimas Notícias

MXGP da Bélgica: Melhores momentos e resultados das classificatórias em Lommel
Publicado em: 03/08/2019

Max Anstie é o mais rápido na classe MXGP. Jorge Prado domina novamente na MX2
Redação MotoX.com.br - Fotos: Youthstream


Max Anstie

O MXGP da Bélgica, disputado no exigente circuito de areia de Lommel, começou neste sábado (3) com as corridas classificatórias da 14ª etapa do Mundial de Motocross 2019. O britânico Max Anstie (Standing Construct KTM) surgiu como novo nome no topo da categoria principal, enquanto Jorge Prado (Red Bull KTM Factory Racing) manteve a escrita na MX2 com mais uma vitória.

Anstie tem um caso de amor antigo com o circuito belga, onde venceu três GPs quando competia na classe MX2. Agora, na categoria MXGP, o britânico mostrou que continua sendo um dos pilotos mais rápidos no terreno arenoso. Logo na segunda volta Anstie superou Arnaud Tonus, que havia feito o holeshot e, no giro seguinte, ultrapassou Tim Gajser para assumir a liderança. Anstie chegou a abrir seis segundos de vantagem controlando a prova até a bandeirada com Gajser em segundo. Após uma queda no início, quando brigava pelas primeiras posições, Romain Febvre partiu para uma grande recuperação até o terceiro lugar. Tonus e Jeremy Van Horebeek completaram os cinco primeiros.   

Max Anstie: "É uma sensação ótima e também é incrível para a equipe, eles trabalharam muito para isso. Sei que é só sábado, mas me afastei de Tim (Gajser). Realmente gosto dessa pista, é muito difícil, e tentei manter um pouco de energia para amanhã".


Jorge Prado

Na MX2 o domínio de Prado foi absoluto. O espanhol liderou de ponta a ponta conquistando sua 10ª vitória em classificatórias na temporada. Calvin Vlaanderen e Tom Vialle, em segundo e terceiro, respectivamente, também mantiveram as posições do início ao fim recebendo a bandeirada mais de 20 segundos depois do líder do campeonato.

Melhor belga na disputa, Jago Geerts começou a prova fora dos 10 primeiros e avançou bem no pelotão terminando no quarto lugar. O piloto da casa superou o britânico Ben Watson na briga pela posição já na fase final da prova.

O brasileiro Gustavo Pessoa completou apenas duas voltas na classificatória de hoje e, se confirmado na prova de amanhã, será o 32º a alinhar no gate. Assista aos melhores momentos das duas categorias no vídeo abaixo. 

Vídeo:



Resultados

P # MXGP País Bike Time V Diff Gap M.V. Speed
1 99 Anstie, Max GBR KTM 25:58.059 12 0:00.000 0:00.000 1:59.352 56.7
2 243 Gajser, Tim SLO Hon 26:02.411 12 0:04.352 0:04.352 2:00.323 56.2
3 461 Febvre, Romain FRA Yam 26:23.818 12 0:25.759 0:21.407 2:01.876 55.5
4 4 Tonus, Arnaud SUI Yam 26:25.654 12 0:27.595 0:01.836 2:02.261 55.3
5 89 Van Horebeek, Jeremy BEL Hon 26:26.370 12 0:28.311 0:00.716 2:02.116 55.4
6 27 Jasikonis, Arminas LTU Hus 26:26.968 12 0:28.909 0:00.598 2:02.100 55.4
7 91 Seewer, Jeremy SUI Yam 26:27.249 12 0:29.190 0:00.281 2:01.507 55.7
8 24 Simpson, Shaun GBR KTM 26:40.305 12 0:42.246 0:13.056 2:03.479 54.8
9 259 Coldenhoff, Glenn NED KTM 26:47.059 12 0:49.000 0:06.754 2:02.898 55
10 128 Monticelli, Ivo ITA KTM 26:49.461 12 0:51.402 0:02.402 2:02.558 55.2
11 21 Paulin, Gautier FRA Yam 26:51.852 12 0:53.793 0:02.391 2:02.860 55
12 911 Tixier, Jordi FRA KTM 26:52.842 12 0:54.783 0:00.990 2:04.105 54.5
13 189 Bogers, Brian NED Hon 26:53.152 12 0:55.093 0:00.310 2:04.026 54.5
14 41 Jonass, Pauls LAT Hus 27:13.289 12 1:15.230 0:20.137 2:04.104 54.5
15 107 van Berkel, Lars NED Hus 27:17.170 12 1:19.111 0:03.881 2:04.930 54.1
16 7 Leok, Tanel EST Hus 27:19.803 12 1:21.744 0:02.633 2:06.160 53.6
17 18 Brylyakov, Vsevolod RUS Yam 27:23.942 12 1:25.883 0:04.139 2:06.336 53.5
18 212 Dewulf, Jeffrey BEL KTM 27:32.594 12 1:34.535 0:08.652 2:05.908 53.7
19 34 De Waal, Micha-Boy NED Yam 27:38.565 12 1:40.506 0:05.971 2:06.919 53.3
20 226 Koch, Tom GER KTM 27:38.887 12 1:40.828 0:00.322 2:07.129 53.2
21 152 Petrov, Petar BUL KTM 27:53.011 12 1:54.952 0:14.124 2:06.241 53.6
22 22 Strijbos, Kevin BEL Yam 28:05.393 12 2:07.334 0:12.382 2:07.106 53.2
23 93 Bengtsson, Jonathan SWE KTM 26:14.441 11 1 lap 1 lap 2:06.354 53.5
24 595 Grobben, Cedric BEL KTM 26:27.618 11 1 lap 0:13.177 2:09.285 52.3
25 853 Dekker, Nino NED KTM 26:48.692 11 1 lap 0:21.074 2:10.204 51.9
26 238 Platt, Lukas GER Kaw 27:23.194 11 1 lap 0:34.502 2:09.310 52.3
27 23 Aussems, Menno NED Hon 28:03.363 11 1 lap 0:40.169 2:17.510 49.2
28 191 Rannikko, Rene FIN Hus 28:08.748 11 1 lap 0:05.385 2:17.007 49.3
29 77 Lupino, Alessandro ITA Kaw 17:19.402 7 5 laps 4 laps 2:09.296 52.3
30 127 Rodriguez, Anthony VEN Kaw 8:13.348 3 9 laps 4 laps 2:09.003 52.4
31 62 Gercar, Klemen SLO Hus 4:07.269 1 11 laps 2 laps 2:17.882 49

P # MX2 País Bike Time V Diff Gap M.V. Speed
1 61 Prado, Jorge ESP KTM 26:13.692 12 0:00.000 0:00.000 1:58.535 57
2 10 Vlaanderen, Calvin NED Hon 26:37.291 12 0:23.599 0:23.599 2:00.866 55.9
3 28 Vialle, Tom FRA KTM 26:40.666 12 0:26.974 0:03.375 2:01.570 55.6
4 193 Geerts, Jago BEL Yam 26:41.361 12 0:27.669 0:00.695 2:02.317 55.3
5 919 Watson, Ben GBR Yam 26:44.593 12 0:30.901 0:03.232 2:02.896 55
6 29 Jacobi, Henry GER Kaw 27:00.202 12 0:46.510 0:15.609 2:02.768 55.1
7 811 Sterry, Adam GBR Kaw 27:13.411 12 0:59.719 0:13.209 2:03.363 54.8
8 19 Olsen, Thomas Kjer DEN Hus 27:19.960 12 1:06.268 0:06.549 2:05.481 53.9
9 105 Genot, Cyril BEL KTM 27:24.451 12 1:10.759 0:04.491 2:04.493 54.3
10 172 Boisrame, Mathys FRA Hon 27:36.512 12 1:22.820 0:12.061 2:05.481 53.9
11 959 Renaux, Maxime FRA Yam 27:42.585 12 1:28.893 0:06.073 2:07.685 53
12 44 Lesiardo, Morgan ITA KTM 28:15.533 12 2:01.841 0:32.948 2:09.797 52.1
13 161 Östlund, Alvin SWE Hus 28:16.694 12 2:03.002 0:01.161 2:06.549 53.4
14 35 Harrison, Mitchell USA Kaw 28:36.678 12 2:22.986 0:19.984 2:11.067 51.6
15 766 Sandner, Michael AUT KTM 26:20.061 11 1 lap 1 lap 2:09.488 52.2
16 484 Carpenter, James GBR Hus 26:53.181 11 1 lap 0:33.120 2:10.442 51.8
17 275 Furbetta, Joakin ITA Hus 26:57.526 11 1 lap 0:04.345 2:12.244 51.1
18 253 Pancar, Jan SLO Yam 27:04.683 11 1 lap 0:07.157 2:12.978 50.8
19 199 Griekspoor, Lars NED KTM 27:14.967 11 1 lap 0:10.284 2:10.494 51.8
20 818 Hauquier, Jeremy FRA KTM 27:23.191 11 1 lap 0:08.224 2:13.283 50.7
21 102 Sikyna, Richard SVK KTM 27:29.493 11 1 lap 0:06.302 2:13.434 50.7
22 332 Conijn, Marcel NED Kaw 27:29.935 11 1 lap 0:00.442 2:09.669 52.1
23 271 Gouwenberg, Koen NED Hon 27:34.533 11 1 lap 0:04.598 2:14.492 50.3
24 67 Grimshaw, Tom GBR Yam 28:01.545 11 1 lap 0:27.012 2:16.191 49.6
25 331 Freidig, Loris SUI Yam 28:03.473 11 1 lap 0:01.928 2:17.389 49.2
26 651 Tinkler-Walker, Kade CAN Hus 22:23.341 9 3 laps 2 laps 2:13.439 50.7
27 57 Sanayei, Darian USA Kaw 17:21.721 7 5 laps 2 laps 2:10.066 52
28 225 Strubhart Moreau, Brian FRA Kaw 15:20.948 6 6 laps 1 lap 2:07.742 52.9
29 66 Larranaga Olano, Iker ESP KTM 16:04.591 6 6 laps 0:43.643 2:09.941 52
30 218 Van Mechelen, Joel NED Hus 12:56.280 5 7 laps 1 lap 2:09.665 52.1
31 313 Polak, Petr CZE KTM 8:36.090 3 9 laps 2 laps 2:14.409 50.3
32 56 Pessoa, Gustavo BRA Kaw 7:19.210 2 10 laps 1 lap 2:13.485 50.7
33 783 Toriani, Enzo FRA Hus 4:05.501 1 11 laps 1 lap 2:12.455 51







© 2000 - 2018 MotoX MX1 Internet